LANDSAT 8 (39084 NORAD) Tracking and Keplerian Element Data

This shows tracking and keplerian element data for the satellite.

Feedback or suggestion? Click here.




ElementValue
Catalog39084
NameLANDSAT 8
Epoch Orbit45865
Epoch Day270.14569141
Epoch Year2021
RAAN339.32
Inclination98.216
Eccentricity0.0001115
Argument of Perigee101.5272
Mean Anonmoly258.6052
Mean Motion14.57104108
Decay Rate8.2E-07
L11 39084U 13008A 21270.14569141 .00000082 00000-0 28311-4 0 9998
L22 39084 98.2160 339.3200 0001115 101.5272 258.6052 14.57104108458655

Live tracking and technical data element details for LANDSAT 8 (NORAD 39084). LANDSAT 8 can be tracked NOW for your location showing map with azimuth and elevation plus other details from your city location.

Track the satellite on the map from your city or location and see movement details for azimuth, elevation, latitude, longitude, range, height, and movement on the map or in text.







IsCatalogInMostPopularTable: catalog: 39084, numindb: 528
Update: records affected: 1



GetName: 39084 LANDSAT 8

Hit Count: updated at: Tue, 28 Sep 2021 16:37:05 GMT